This is the latest recevied weather packets stored in our database for station/object KB1WCR. If no packets are shown the sender has not sent any weather packets the latest 10 day(s).
| Time | Temp. | Humidity | Pressure | Rain* | Wind** | Luminosity | Snow |
|---|---|---|---|---|---|---|---|
| 1787868577 | 23.89° C | 84% | 1015.4 hPa | 0 mm | - | 52 W/m² | - |
| 1787868277 | 23.89° C | 84% | 1015.2 hPa | 0 mm | - | 59 W/m² | - |
| 1787867972 | 23.89° C | 83% | 1015.4 hPa | 0 mm | - | 68 W/m² | - |
| 1787867668 | 24.44° C | 83% | 1015.7 hPa | 0 mm | - | 70 W/m² | - |
| 1787867362 | 24.44° C | 82% | 1015.5 hPa | 0 mm | - | 72 W/m² | - |
| 1787867059 | 24.44° C | 83% | 1015.7 hPa | 0 mm | - | 115 W/m² | - |
| 1787866753 | 24.44° C | 83% | 1015.8 hPa | 0 mm | - | 146 W/m² | - |
| 1787866453 | 23.89° C | 83% | 1015.8 hPa | 0 mm | - | 183 W/m² | - |
| 1787866152 | 24.44° C | 83% | 1016 hPa | 0 mm | - | 113 W/m² | - |
| 1787865847 | 25° C | 81% | 1015.9 hPa | 0 mm | - | 125 W/m² | - |
| 1787865543 | 25° C | 82% | 1016 hPa | 0 mm | - | 120 W/m² | - |
| 1787865237 | 25.56° C | 80% | 1016 hPa | 0 mm | - | 119 W/m² | - |
| 1787864933 | 26.11° C | 79% | 1016 hPa | 0 mm | - | 241 W/m² | - |
| 1787864628 | 25.56° C | 80% | 1016 hPa | 0 mm | - | 215 W/m² | - |
| 1787864322 | 25.56° C | 80% | 1016 hPa | 0 mm | - | 305 W/m² | - |
| 1787864026 | 25.56° C | 80% | 1015.9 hPa | 0 mm | - | 337 W/m² | - |
| 1787863721 | 25° C | 82% | 1016.1 hPa | 0 mm | - | 388 W/m² | - |
| 1787863415 | 23.89° C | 83% | 1016.1 hPa | 0 mm | - | 197 W/m² | - |
| 1787863111 | 23.89° C | 84% | 1016.4 hPa | 0 mm | - | 73 W/m² | - |
| 1787862806 | 23.89° C | 85% | 1016.4 hPa | 0 mm | - | 51 W/m² | - |
| 1787862506 | 24.44° C | 83% | 1016.4 hPa | 0 mm | - | 69 W/m² | - |
| 1787862201 | 25.56° C | 82% | 1016.3 hPa | 0 mm | - | 87 W/m² | - |
| 1787861896 | 25.56° C | 80% | 1016.2 hPa | 0 mm | - | 375 W/m² | - |
| 1787861595 | 25.56° C | 82% | 1016 hPa | 0 mm | - | 253 W/m² | - |
| 1787861294 | 25° C | 82% | 1016.2 hPa | 0 mm | - | 207 W/m² | - |
* Rain latest hour (hover to see other rain measurements)
** Current wind speed in m/s (hover to see current wind gust speed)